Regional Weather Roundup
Issued by NWS

Home | Current Version | Previous Version | Graphics & Text | Print | Product List | Glossary On
Versions: 1 2 3 4 5 6 7 8 9 10 11 12 13 14 15 16 17 18 19 20 21 22 23 24 25 26 27 28 29 30 31 32 33 34 35 36 37 38 39 40 41 42 43 44 45 46 47 48 49 50
000
ASUS43 KDTX 202010
RWRMI
MICHIGAN HOURLY REGIONAL WEATHER ROUNDUP
NATIONAL WEATHER SERVICE DETROIT/PONTIAC MI
400 PM EDT SUN APR 20 2014

NOTE: "FAIR" INDICATES FEW OR NO CLOUDS BELOW 12,000 FEET WITH NO
SIGNIFICANT WEATHER AND/OR OBSTRUCTION TO VISIBILITY.

MIZ047>049-052>055-059>063-066>070-074>076-081>083-202100-
SOUTHEAST LOWER MICHIGAN

CITY           SKY/WX    TMP DP  RH WIND       PRES   REMARKS
ADRIAN         SUNNY     70  28  21 SW8G18    30.19F
ALMA           MOSUNNY   69  29  22 S8        30.16F
ANN ARBOR      MOSUNNY   72  27  18 S13       30.18F
BAD AXE        SUNNY     70  26  19 S9G17     30.17F
CARO           SUNNY     73  22  14 S7G17     30.15F
DETROIT CITY   MOSUNNY   71  26  18 S10       30.19F
DETROIT        PTSUNNY   71  31  22 E6        30.19F
FLINT          MOSUNNY   72  27  18 S12       30.17F
GROSSE ILE     SUNNY     63  39  42 S3        30.19F
HILLSDALE      SUNNY     72  20  14 S7        30.19F
HOWELL         MOSUNNY   68  25  20 S6        30.18F

CITY           SKY/WX    TMP DP  RH WIND       PRES   REMARKS
JACKSON        SUNNY     70  23  17 SW9       30.18F
LAMBERTVILLE   SUNNY     72  28  20 SW7       30.18F
LANSING        MOSUNNY   72  27  18 SW12      30.17F
LAPEER         FAIR      70  24  18 SW8G17    30.18F
MASON          MOSUNNY   72  31  21 SW7       30.17F
MONROE         SUNNY     70  36  28 SE7       30.18F
MT. CLEMENS    PTSUNNY   64  38  37 E10       30.18F
PONTIAC        PTSUNNY   69  25  19 SW7       30.18F
PORT HOPE        N/A     52  37  56 NW3       30.16F
PORT HURON     SUNNY     68  34  28 S10       30.20F
TRI CITIES     MOSUNNY   72  28  19 S10       30.16F
TROY           SUNNY     69  25  18 SW7       30.19F
SAGINAW HB     MOSUNNY   72  28  20 SW13      30.15F
YPSILANTI      SUNNY     74  28  18 W9        30.19F
$$
MIZ043>046-050>051-056>058-064>065-071>073-077>080-202100-
SOUTHWEST LOWER MICHIGAN

CITY           SKY/WX    TMP DP  RH WIND       PRES   REMARKS
BATTLE CREEK   SUNNY     71  28  20 S8G23     30.18F
BENTON HARBOR  MOSUNNY   72  37  28 W7        30.15F
BIG RAPIDS     SUNNY     70  37  29 W13       30.13F
COLDWATER      SUNNY     69  22  17 S7        30.18S
FREMONT        FAIR      70  32  24 S14       30.14F
HOLLAND        SUNNY     73  37  27 SW10      30.16F
GRAND RAPIDS   MOSUNNY   73  32  22 SW10G21   30.16F
IONIA          FAIR      71  28  20 S5        30.15F
KALAMAZOO      SUNNY     72  29  20 S10G18    30.17F
LUDINGTON      PTSUNNY   67  37  33 SW13      30.13F
MARSHALL       SUNNY     70  28  21 S9        30.17F
MOUNT PLEASANT MOSUNNY   71  31  22 SE6       30.15F
MUSKEGON       MOSUNNY   68  33  27 S17G24    30.15F
SOUTH HAVEN    MOSUNNY   72  32  23 W8        30.15F
$$
MIZ016>042-202100-
NORTHERN LOWER MICHIGAN

CITY           SKY/WX    TMP DP  RH WIND       PRES   REMARKS
ALPENA         CLOUDY    49  37  63 E5        30.14F
BEAVER ISLAND  LGT RAIN  45  36  71 SW13G22   30.10F
BELLAIRE       CLOUDY    63  33  32 S3        30.11F
CADILLAC       PTSUNNY   69  39  33 SW14G21   30.12F
CHARLEVOIX     CLOUDY    53  45  74 CALM      30.13F
FRANKFORT      PTSUNNY   58  35  42 SW10G18   30.12F
GAYLORD        LGT RAIN  61  36  39 W6        30.12F
GRAYLING       PTSUNNY   68  32  26 SW5       30.13F
HARBOR SPRINGS RAIN      52  49  89 CALM      30.10F
HOUGHTON LAKE  PTSUNNY   68  34  28 VRB7      30.13F
MANISTEE       PTSUNNY   70  36  28 W12G17    30.12F
OSCODA         MOSUNNY   68  22  17 S10G18    30.14F
PELLSTON       LGT RAIN  50  46  86 SE5       30.11F
ROGERS CITY    LGT RAIN  55  42  63 CALM      30.14F
TRAVERSE CITY  CLOUDY    67  35  30 W9        30.10F
$$
MIZ007>008-015-202100-
EASTERN UPPER MICHIGAN

CITY           SKY/WX    TMP DP  RH WIND       PRES   REMARKS
KINROSS        CLOUDY    39  39 100 SE3       30.12F
MACKINAC ISLAN CLOUDY    46  45  97 CALM      30.11F
NEWBERRY       CLOUDY    39  34  84 S13       30.08F WCI  31
S. S. MARIE    CLOUDY    39  37  92 E5        30.12F FOG
MUNISING         N/A     54  41  61 S9        30.03F
$$
MIZ004>006-011>014-085-202100-
CENTRAL UPPER MICHIGAN

CITY           SKY/WX    TMP DP  RH WIND       PRES   REMARKS
MANISTIQUE     CLOUDY    37  35  90 S12       30.08F WCI  30
ESCANABA       CLOUDY    39  36  87 S9        30.07F WCI  33
MENOMINEE      PTSUNNY   48  45  87 SW5       30.07F
SAWYER-GWINN   SUNNY     61  46  59 S9        30.02F
$$
MIZ001>003-009>011-084-202100-
WESTERN UPPER MICHIGAN

CITY           SKY/WX    TMP DP  RH WIND       PRES   REMARKS
IRON MOUNTAIN  PTSUNNY   64  48  56 SE7       30.01F
HOUGHTON       SUNNY     52  39  61 W12       30.00F
COPPER HARBOR    N/A     40  33  76 N8        30.01S WCI  34
IRONWOOD       SUNNY     63  39  42 NW9       29.97S
$$

ABBREVIATIONS USED IN REMARKS
   TC - TEMPERATURE IN CELSIUS
  WCI - WIND CHILL INDEX
   HX - HEAT INDEX
  VSB - VISIBILITY




USA.gov is the U.S. government's official web portal to all federal, state and local government web resources and services.